This is the latest recevied weather packets stored in our database for station/object KO4DYK. If no packets are shown the sender has not sent any weather packets the latest 10 day(s).
| Time | Temp. | Humidity | Pressure | Rain* | Wind** | Luminosity | Snow |
|---|---|---|---|---|---|---|---|
| 1777762249 | 18.89° C | 41% | 1020.9 hPa | 0 mm | - | 83 W/m² | - |
| 1777761945 | 18.89° C | 43% | 1020.9 hPa | 0 mm | - | 92 W/m² | - |
| 1777761643 | 19.44° C | 41% | 1020.8 hPa | 0 mm | - | 81 W/m² | - |
| 1777761340 | 19.44° C | 41% | 1020.9 hPa | 0 mm | - | 95 W/m² | - |
| 1777761039 | 20° C | 40% | 1020.7 hPa | 0 mm | - | 112 W/m² | - |
| 1777760735 | 20° C | 41% | 1020.7 hPa | 0 mm | - | 265 W/m² | - |
| 1777760432 | 20° C | 41% | 1020.5 hPa | 0 mm | - | 127 W/m² | - |
| 1777760127 | 20° C | 42% | 1020.6 hPa | 0 mm | - | 154 W/m² | - |
| 1777759825 | 19.44° C | 43% | 1020.6 hPa | 0 mm | - | 333 W/m² | - |
| 1777759520 | 20° C | 41% | 1020.7 hPa | 0 mm | - | 135 W/m² | - |
| 1777759218 | 20° C | 40% | 1020.6 hPa | 0 mm | - | 137 W/m² | - |
| 1777758915 | 19.44° C | 42% | 1020.6 hPa | 0 mm | - | 144 W/m² | - |
| 1777758612 | 19.44° C | 42% | 1020.5 hPa | 0 mm | - | 109 W/m² | - |
| 1777758309 | 20° C | 41% | 1020.5 hPa | 0 mm | - | 123 W/m² | - |
| 1777758006 | 20° C | 38% | 1020.4 hPa | 0 mm | - | 509 W/m² | - |
| 1777757702 | 20.56° C | 39% | 1020.3 hPa | 0 mm | - | 502 W/m² | - |
| 1777757401 | 21.11° C | 40% | 1020.4 hPa | 0 mm | - | 526 W/m² | - |
| 1777757099 | 21.67° C | 38% | 1020.4 hPa | 0 mm | - | 536 W/m² | - |
| 1777756796 | 21.67° C | 39% | 1020.3 hPa | 0 mm | - | 552 W/m² | - |
| 1777756492 | 21.11° C | 41% | 1020.5 hPa | 0 mm | - | 504 W/m² | - |
| 1777756189 | 20° C | 41% | 1020.4 hPa | 0 mm | - | 323 W/m² | - |
| 1777755886 | 20° C | 44% | 1020.6 hPa | 0 mm | - | 405 W/m² | - |
| 1777755583 | 20.56° C | 45% | 1020.5 hPa | 0 mm | - | 214 W/m² | - |
| 1777755279 | 20.56° C | 51% | 1020.5 hPa | 0 mm | - | 174 W/m² | - |
| 1777754977 | 20.56° C | 47% | 1020.5 hPa | 0 mm | - | 608 W/m² | - |
* Rain latest hour (hover to see other rain measurements)
** Current wind speed in m/s (hover to see current wind gust speed)